Location: Iesi
(43.5167°N, 13.2333°E)
Time: 21:07:58
(UTC+00:00)

X-37B - Pass Details

Date: 01 November 2020
Orbit: 384 x 390 km, 45.0° (Epoch: 26 November)

Event Time Altitude Azimuth Distance (km) Brightness Sun altitude
Exits shadow 04:22:40 - 203° (SSW) 2,052 4.1 -15.0°
Reaches altitude 10° 04:24:43 10° 183° (S) 1,407 3.4 -14.6°
Maximum altitude 04:26:41 15° 144° (SE) 1,130 3.5 -14.3°
Drops below altitude 10° 04:28:40 10° 106° (ESE) 1,411 4.8 -13.9°
Sets 04:31:18 0° 83° (E) 2,267 6.1 -13.4°
